sat.trackr.live / text

‹ back to catalog

STARLINK-33926

NORAD 64147 · 2025-112B

PAYLOAD ACTIVE UNKNOWN

§ Identity

Operator
Country
US
Launch date
2025-05-27
Launch site
AFWTR
Launch vehicle
Mass (kg)
RCS (m²)

Purposes: comms

External: N2YO · Heavens-Above · Gunter

§ Orbital elements

Epoch: 2026-09-20T13:57:31.031424Z

Period
93.90 min
Inclination
97.2857°
Eccentricity
0.0000203
Mean motion
15.33467533 rev/d
Perigee alt
465.3 km
Apogee alt
465.6 km
Semi-major
6,843.6 km
B*
3.3795e-4
RAAN
310.6891°
Arg perigee
46.9625°
Mean anomaly
313.1634°
Rev number
7,276

§ Raw data

STARLINK-339261 64147U 25112B   26263.58160916  .00010858  00000+0  33795-3 0  99992 64147  97.2857 310.6891 0000203  46.9625 313.1634 15.33467533 72760

JSON: /api/v1/satellites/64147 · /tle

For live sub-satellite position, see the globe view (requires WebGL).

§ Visibility from observer

Set your observer location to see the next 7 days of passes ≥ 10°. The values pass through the URL so the page stays shareable.

No JS? Fill the form by hand. The geolocation button needs JavaScript.